Location: B
(0.0000°N, 0.0000°E)
Time: 17:57:41
(UTC+01:00)

Daily predictions for brighter satellites

Satellite Brightness Start Highest point End
(mag) Time Altitude Azimuth Time Altitude Azimuth Time Altitude Azimuth
ARIANE 5 DEB (SYLDA) 4.4 19:04:50 10° W 19:10:33 84° S 19:40:26 10° E
ARIANE 5 DEB (SYLDA) 4.4 19:04:50 10° W 19:10:34 84° S 19:40:26 10° E
ARIANE 5 DEB (SYLDA) 4.4 19:04:50 10° W 19:10:34 84° S 19:40:27 10° E
Coronas F rocket 1.4 19:37:49 10° SSE 19:40:07 41° E 19:42:25 10° NNE
Cosmos 773 Rocket 4.1 19:37:16 10° SSW 19:42:23 82° WNW 19:47:31 10° N
Cosmos 1726 2.2 19:39:22 10° N 19:43:08 84° W 19:46:55 10° S
Cosmos 1943 4.4 19:38:50 10° SSE 19:43:12 23° ESE 19:47:33 10° NE
Cosmos 1634 Rocket 4.4 19:37:40 10° N 19:43:46 69° W 19:49:56 10° S
Cosmos 1300 2.8 19:41:56 10° N 19:45:44 79° W 19:49:34 10° S
Cosmos 1844 Rocket 2.6 19:43:40 10° NNW 19:49:17 83° ENE 19:54:53 10° SSE
Meteor 1-29 3.8 19:47:57 10° NE 19:50:57 29° ESE 19:53:58 10° SSE
Ariane H10+ 2.9 19:42:16 10° W 19:52:19 88° S 19:55:05 14° E
Cosmos 1151 Rocket 3.8 19:49:19 10° NNW 19:53:31 56° W 19:57:47 10° S
Sich 1 3.6 19:49:58 10° SSW 19:54:19 62° W 19:58:41 10° N
Cosmos 1633 Rocket 3.6 19:54:10 10° SSW 19:58:33 64° W 20:02:55 10° N
Genesis I 3.8 19:56:30 10° S 20:00:10 39° ESE 20:02:46 17° NE
METEOR-M 4.1 19:55:24 10° SSE 20:00:41 62° ENE 20:05:57 10° N
ALOS 3.1 19:58:12 10° SE 20:02:08 27° ENE 20:06:02 10° NNE
Cosmos 1603 4.0 19:59:57 10° SSW 20:05:35 69° WNW 20:11:10 10° N
Cosmos 372 Rocket 4.2 20:01:37 10° N 20:06:26 43° ENE 20:11:16 10° SSE
Ariane H10-3 2.1 20:04:21 10° WSW 20:07:17 42° S 20:10:32 14° ESE
ARIANE 5 DEB (SYLDA) 3.1 20:00:27 10° W 20:09:00 77° N 20:11:30 21° E
SJ-6B 2.7 20:06:14 10° SSE 20:10:09 76° ENE 20:14:08 10° N
USA 129 1.1 20:10:16 69° NW 20:10:22 75° W 20:12:12 10° SSW
Resurs 01 Rocket 2.3 20:09:23 10° SE 20:13:23 33° ENE 20:17:22 10° NNE
Cosmos 292 Rocket 4.2 20:10:03 10° SSW 20:14:47 63° WNW 20:19:29 10° N
Aureole 3 4.3 20:11:59 10° S 20:17:24 86° E 20:24:11 10° N
Meteor 2-10 4.5 20:12:41 10° NNW 20:17:54 67° W 20:23:20 10° S
Resurs 1-3 4.1 20:19:45 10° SE 20:23:46 35° ENE 20:24:44 31° NE
Helios 1B rocket 3.4 20:21:28 10° N 20:25:25 48° WNW 20:29:25 10° SSW
Spot 2 Rocket 3.7 20:20:41 10° SSE 20:25:33 47° ENE 20:30:22 10° N
Aurora 2 Rocket 4.1 20:19:43 10° WSW 20:26:07 63° NNW 20:31:33 25° NE
ARIANE 44LP R/B 3.2 20:26:59 10° NW 20:28:45 26° N 20:28:45 26° N
Intelsat 5-3 Rocket 4.4 20:14:48 10° WSW 20:29:30 52° SSE 20:32:56 26° E
NOSS 3-1 (A) 3.1 20:24:53 10° SSW 20:30:32 87° ESE 20:34:02 24° NNE
FUSE 3.8 20:25:49 10° WNW 20:31:12 85° NNE 20:34:12 27° ESE
Meteor 2-3 Rocket 4.3 20:28:32 10° SSE 20:33:33 33° E 20:33:53 33° E
HJ-1C 3.5 20:30:50 10° S 20:34:18 78° W 20:37:29 12° NNW
Cosmos 2026 Rocket 3.9 20:29:31 10° S 20:35:53 87° E 20:42:09 10° N
ATLAS 2AS CENTAUR R/B 4.1 20:32:54 10° SSE 20:37:07 19° ESE 20:37:07 19° ESE
Cosmos 2278 Rocket 2.2 20:32:13 10° NNW 20:37:53 87° WSW 20:43:34 10° SSE
ISS -2.5 20:37:50 10° SSW 20:40:18 41° S 20:40:18 41° S
Cosmos 1707 Rocket 4.3 20:38:30 10° NNW 20:42:43 51° W 20:46:59 10° S
Cosmos 1455 3.9 20:59:36 14° NW 21:02:24 33° W 21:05:54 10° SSW
Cosmos 2242 Rocket 4.5 21:11:59 43° WNW 21:12:39 47° W 21:17:00 10° SSW
Timation 1 Rocket 4.2 21:06:47 10° NNW 21:13:05 81° SE 21:18:46 10° SSE
BLOCK DM-SL R/B 3.7 21:25:40 10° W 21:29:55 61° W 21:29:55 61° W
Ariane H10 4.0 21:10:11 10° W 21:48:27 78° N 21:48:45 77° N
ATLAS 2AS CENTAUR R/B 4.4 22:21:31 10° SW 22:24:36 27° WSW 22:24:36 27° WSW
